Temperature
13 13 13 13 13 13 13 13 13 13 13 13 12 12 12 12 12 12 12 12 12 12 11 11 11 11 10 10 10 10 10 10 10 10 10 10 9 9 9 9 9 9 9
13 13 13 13 13 13 13 13 13 13 13 13 12 12 12 12 12 12 11 11 11 11 11 11 11 11 11 10 10 10 10 10 10 10 10 9 9 9 9 8 9 8 8
13 12 12 12 13 13 13 13 12 12 12 12 12 12 12 12 11 11 11 11 11 11 11 11 11 10 10 10 10 10 10 10 10 9 9 9 9 8 8 8 8 8 8
12 12 12 12 12 12 12 12 12 12 12 12 12 12 12 11 11 11 11 11 11 11 11 11 10 10 10 10 9 10 9 9 9 9 9 9 8 8 8 8 8 7 7
12 12 12 12 12 12 12 12 12 12 12 12 12 12 11 11 11 11 11 11 11 11 10 10 10 10 10 9 9 9 9 9 9 8 8 8 8 8 7 7 7 7 7
12 12 12 12 12 12 11 11 11 11 11 11 11 11 11 11 11 11 11 10 10 10 10 10 10 9 9 9 9 9 9 8 8 8 8 8 7 7 7 7 7 7 7
11 11 12 11 11 11 11 11 11 11 11 11 11 11 10 10 10 10 10 10 10 10 10 9 9 9 9 9 9 8 8 8 8 8 7 7 7 7 7 6 6 7 7
11 11 11 11 11 11 11 11 11 11 11 11 10 10 9 9 10 10 10 9 9 9 9 9 9 9 8 8 8 8 8 8 8 7 7 7 6 6 6 6 6 6 6
10 11 11 11 11 11 10 10 10 10 10 10 10 10 9 9 9 9 9 9 9 9 9 9 8 8 8 8 8 7 7 7 7 7 7 6 6 6 6 6 5 6 6
10 10 10 10 10 10 10 10 10 10 10 10 10 10 9 9 9 8 8 8 8 8 8 8 8 8 7 7 7 7 7 7 7 6 6 6 6 5 5 5 5 5 5
10 10 10 10 10 10 10 10 9 9 9 10 10 9 9 9 9 8 8 8 8 8 8 7 7 7 7 7 7 6 6 6 6 6 6 6 5 5 5 5 5 5 5
9 9 9 9 9 9 9 9 9 9 9 9 9 9 9 9 9 8 7 7 7 7 7 7 7 7 6 6 6 6 6 6 6 6 5 5 5 4 4 5 5 5 5
8 9 9 9 9 9 9 9 9 9 9 9 9 9 9 8 8 8 7 7 6 7 7 6 6 6 6 5 5 5 5 5 5 5 5 5 4 4 4 4 4 4 4
8 8 8 8 8 8 8 9 9 8 8 8 8 8 8 8 8 7 7 6 6 6 6 6 5 5 5 5 5 5 5 5 5 5 4 4 4 4 4 4 4 4 4
7 8 8 8 8 8 8 8 8 8 8 8 8 8 8 8 7 7 7 7 6 5 5 5 5 5 5 4 5 4 4 4 4 4 4 4 3 3 3 3 3 3 3
7 7 7 7 7 8 8 8 8 8 8 7 7 7 7 7 7 7 6 6 6 5 4 5 5 4 4 4 4 4 4 4 4 4 4 3 3 3 3 3 3 3 3
6 6 7 7 7 7 7 7 7 7 7 7 7 7 7 7 7 6 6 6 5 5 4 4 4 4 4 4 4 4 4 4 4 3 3 3 3 3 3 3 2 2 2
6 6 6 6 6 7 7 7 7 7 7 7 7 7 6 6 6 6 5 5 5 4 4 4 4 4 4 3 3 3 3 3 3 3 3 3 2 2 2 2 2 2 2
5 5 6 6 6 6 6 6 7 7 6 6 6 6 6 6 6 5 5 5 4 4 4 4 3 3 3 3 3 3 3 3 3 3 2 2 2 2 2 2 2 2 1
5 5 5 5 6 6 6 6 6 6 6 6 6 6 6 5 5 5 5 4 4 4 4 3 3 3 3 3 2 2 2 2 2 2 2 2 2 2 2 2 1 1 1
4 5 5 5 5 5 5 5 5 5 5 5 5 5 5 5 5 4 4 4 4 3 3 3 3 3 2 2 2 2 1 2 2 2 2 2 2 2 2 1 1 1 1
4 4 4 4 4 5 5 5 5 5 5 5 5 5 5 4 4 4 4 3 3 3 3 3 2 2 2 2 1 1 1 1 1 1 1 1 1 1 1 1 1 0 0
3 4 4 4 4 4 4 4 4 4 4 4 4 4 4 4 4 3 3 3 3 3 3 2 2 2 2 1 1 1 1 1 1 1 1 1 1 1 1 0 0 0 0
3 3 3 3 3 4 4 4 4 4 4 4 4 4 4 3 3 3 3 3 3 3 2 2 2 2 2 1 1 1 1 0 0 0 0 0 1 1 0 0 0 -0 -0
2 2 3 3 3 3 3 3 3 3 4 3 3 3 3 3 3 2 2 3 2 2 2 2 2 1 1 1 1 0 0 -0 0 0 0 -0 0 0 0 0 0 -0 -0
2 2 2 2 3 3 3 3 3 3 3 3 3 3 3 2 2 2 2 2 2 2 2 1 1 1 1 1 1 1 0 -0 -0 -0 -0 -0 -0 -1 -0 -0 -0 -0 -0
Wind_Speed
4 4 4 4 4 4 3 3 3 4 4 4 4 4 3 4 6 7 7 8 7 6 5 5 5 5 5 6 7 7 8 8 9 9 10 10 11 11 11 11 12 13 13
5 4 3 3 3 4 4 4 3 3 3 3 3 3 3 4 5 7 7 7 7 6 5 4 4 4 5 6 7 8 8 8 9 9 10 11 11 12 12 12 13 13 14
6 5 3 3 3 4 4 3 4 3 3 3 2 3 3 3 4 5 6 6 5 5 4 3 3 4 5 6 6 7 8 8 9 10 10 11 12 12 13 13 13 14 14
6 5 3 3 4 4 3 2 2 2 2 2 2 2 2 2 3 4 5 5 5 4 4 3 3 3 4 5 6 7 7 8 9 10 11 11 12 13 13 14 14 14 15
6 5 3 4 5 3 2 2 2 3 3 2 2 2 2 2 2 2 3 4 4 4 3 3 1 2 3 5 6 7 8 8 10 10 11 12 13 13 14 14 14 15 15
5 5 4 5 5 3 2 2 2 2 3 3 2 1 1 1 2 2 2 4 4 3 3 2 1 1 2 4 6 7 8 9 10 10 11 12 13 13 14 15 15 15 15
4 5 4 4 4 3 3 3 2 3 2 2 2 1 1 0 1 1 2 2 3 3 3 2 1 1 1 3 5 7 8 9 10 10 11 12 13 14 14 15 15 15 15
4 5 4 4 4 3 3 4 3 2 2 2 2 2 1 1 1 0 1 1 2 2 2 1 1 1 2 2 4 6 8 9 10 11 12 13 14 14 14 14 15 15 15
4 4 5 4 4 4 4 3 3 3 3 2 2 3 3 2 1 1 1 1 1 1 1 1 1 1 0 1 2 4 7 10 10 12 13 13 14 14 14 14 15 15 15
4 4 5 4 4 4 5 4 3 2 4 3 1 1 2 3 2 0 1 1 1 1 1 0 0 0 0 1 2 5 7 9 11 12 13 14 14 15 14 14 14 15 15
3 4 4 4 3 4 5 5 4 3 2 3 2 1 1 1 1 2 2 1 1 1 1 1 1 0 1 1 2 4 7 9 11 12 13 14 14 15 15 14 14 15 14
2 2 3 3 3 3 4 4 4 4 2 2 2 2 2 2 2 2 2 2 1 1 1 1 1 0 1 1 3 6 8 9 11 12 12 13 14 15 15 15 15 15 15
2 3 3 3 2 3 3 4 4 3 3 3 3 2 2 2 2 1 2 1 1 1 1 1 1 1 1 2 3 6 7 9 11 11 12 13 14 15 14 14 15 15 15
3 3 3 3 3 3 3 4 3 3 3 3 3 3 2 1 1 2 2 2 1 1 1 2 1 1 1 2 4 6 6 9 11 11 12 12 13 14 14 14 14 14 15
2 3 3 3 3 3 3 4 3 3 3 2 3 3 2 2 2 2 2 3 3 2 2 2 0 1 2 3 4 6 6 8 11 11 12 12 12 13 13 13 13 13 14
2 3 4 4 3 3 4 4 3 3 3 3 3 3 3 2 2 2 2 2 2 3 3 2 2 2 3 4 6 7 6 9 10 11 11 12 12 12 13 12 12 13 14
3 3 3 4 3 4 4 4 4 4 4 3 3 4 3 3 3 2 2 1 1 2 3 3 2 2 2 3 4 5 6 6 7 10 11 12 12 12 12 12 12 13 14
3 3 3 3 3 3 4 4 4 4 4 4 4 4 4 3 3 2 2 2 2 2 2 3 3 2 3 3 3 4 5 6 6 9 11 11 12 12 12 12 12 13 14
2 3 3 3 3 3 4 4 4 4 4 4 4 4 4 4 4 3 3 3 2 1 2 2 3 2 3 3 3 4 4 4 6 8 9 10 11 11 12 12 13 13 14
2 2 2 3 3 3 3 3 3 3 3 3 3 4 4 5 4 4 3 3 2 2 2 2 2 2 2 2 2 3 4 4 4 6 8 9 9 11 12 13 13 13 14
1 2 2 2 2 2 3 3 2 3 3 3 2 3 3 3 4 3 3 3 3 2 2 2 2 3 3 3 3 3 5 5 4 3 5 5 5 6 8 11 11 13 14
0 1 2 2 2 2 3 3 2 2 3 3 3 2 2 2 3 2 2 2 2 3 3 2 3 3 4 3 3 4 4 5 5 3 4 6 4 5 6 6 10 13 13
1 1 1 2 2 2 3 3 3 2 2 3 3 3 2 2 2 2 1 1 1 2 3 3 4 4 4 4 3 4 4 5 5 4 5 6 4 5 6 7 11 13 13
1 0 0 1 2 1 3 3 3 2 2 2 3 3 3 2 2 2 2 0 0 1 2 1 2 3 3 3 3 4 4 5 4 3 3 5 5 5 6 7 10 12 13
0 0 1 1 1 1 2 3 2 2 2 2 2 2 3 3 3 2 2 1 0 1 3 3 3 3 4 5 5 2 3 3 5 4 2 2 4 5 5 5 7 10 13
0 0 0 1 1 1 2 3 2 2 2 1 1 2 3 3 2 2 2 2 1 1 1 2 2 3 3 4 5 2 2 3 4 3 2 2 3 4 4 3 4 6 9
Wind_Direction
152 147 146 150 148 146 154 147 133 125 114 105 107 107 105 102 105 109 106 105 100 87 74 64 57 49 40 32 24 18 10 6 4 360 355 351 347 342 337 334 332 330 327
149 150 151 148 139 144 140 134 133 126 117 109 114 112 108 104 108 113 124 118 107 98 81 67 54 42 33 26 19 13 11 9 5 2 357 351 348 344 339 335 332 329 326
151 150 152 153 146 143 132 124 125 120 130 129 137 125 110 103 107 115 125 130 128 117 101 79 56 40 28 20 14 10 8 6 3 360 356 353 348 343 340 335 331 329 327
151 146 154 155 143 136 131 139 151 144 144 143 141 143 126 111 105 119 119 120 121 125 124 101 63 38 24 14 8 5 2 359 357 356 354 350 346 343 340 336 333 330 328
148 145 152 150 140 134 146 161 155 155 146 136 136 136 140 135 129 130 127 126 125 124 131 135 96 41 16 5 359 357 356 355 353 351 350 347 344 342 340 338 335 332 331
151 142 148 150 143 146 163 157 155 144 140 144 130 112 140 148 139 154 149 137 139 142 130 134 121 87 2 353 351 349 348 349 348 347 346 344 342 340 338 335 333 332 331
150 151 147 147 148 159 169 162 144 139 131 126 105 96 4 79 144 141 131 137 137 143 144 135 104 75 3 343 345 343 341 343 344 344 342 340 339 337 336 334 334 334 333
161 161 150 152 149 148 162 164 148 154 159 153 142 137 128 329 329 235 138 143 145 141 142 148 126 82 47 19 345 341 339 342 342 341 340 338 336 335 336 336 335 333 334
161 157 154 152 152 154 163 169 164 164 173 198 156 146 153 200 246 291 234 163 152 153 147 140 132 126 87 38 352 337 338 342 341 339 337 335 334 332 333 334 334 335 335
159 159 157 154 161 159 161 170 170 167 167 180 194 151 152 153 143 222 292 266 201 197 193 154 97 250 214 42 338 331 339 341 339 338 335 335 333 331 332 334 335 334 334
159 160 158 160 169 165 162 165 163 165 181 177 176 167 144 123 127 160 231 265 291 262 225 203 153 94 62 33 347 335 339 339 338 337 336 336 335 334 334 335 335 334 334
173 166 157 161 174 170 166 167 163 165 176 182 174 162 153 160 178 163 200 224 251 271 275 247 178 158 80 30 343 336 337 337 338 339 337 336 336 335 334 335 333 332 332
188 192 179 177 179 170 166 158 159 175 181 182 182 176 164 174 162 156 163 219 276 284 263 251 223 138 56 29 349 332 334 334 336 336 335 336 337 337 336 337 336 335 335
194 183 179 177 171 169 169 160 165 179 180 174 176 160 161 168 148 152 164 169 239 292 264 250 281 132 43 2 329 324 326 330 333 332 333 335 336 336 336 337 335 335 335
183 174 176 175 168 171 171 166 170 174 169 175 173 163 167 168 155 151 154 161 174 226 262 248 312 301 349 336 322 323 318 323 328 330 330 332 333 333 333 334 334 335 335
169 176 173 170 169 173 172 167 168 169 167 179 170 165 175 167 157 155 168 180 183 194 236 259 277 286 315 321 317 322 316 321 324 324 327 329 330 332 333 334 335 335 335
174 179 171 169 171 172 170 170 175 169 170 175 173 179 190 172 167 168 168 177 193 195 241 278 295 301 311 311 312 315 319 317 315 319 322 324 329 331 334 334 334 334 333
181 173 168 171 172 175 174 176 180 174 177 184 186 183 188 178 171 172 175 188 202 216 225 261 292 303 298 294 299 307 316 318 318 315 317 323 328 330 332 330 332 334 334
176 168 166 181 179 178 176 176 174 178 185 190 184 186 190 177 183 184 181 193 205 225 218 239 279 293 296 297 310 308 311 315 321 319 320 322 323 327 331 332 332 333 333
165 168 174 180 180 179 173 173 173 181 186 185 183 188 188 185 188 185 192 196 199 206 209 231 266 284 292 298 311 314 320 319 320 319 319 318 319 326 328 328 328 330 331
162 160 168 181 179 175 173 167 174 178 176 172 183 187 180 179 186 194 205 199 191 198 207 232 255 284 287 306 305 309 312 316 316 313 313 317 324 326 326 324 325 327 329
92 130 154 177 191 188 169 163 166 180 174 171 179 179 169 165 179 208 242 234 210 205 214 225 255 260 278 292 303 305 313 318 312 313 319 310 315 313 313 319 322 326 328
76 82 153 170 183 179 172 171 171 178 178 184 184 178 184 178 170 166 222 319 331 294 250 234 236 253 266 277 289 299 305 304 296 298 314 303 305 303 310 315 321 327 330
101 90 188 182 166 176 177 175 173 171 174 186 188 187 181 183 183 177 186 197 350 348 298 269 235 254 267 279 272 274 286 298 297 302 314 297 302 302 307 310 316 327 333
133 265 229 184 167 181 180 172 166 171 174 191 195 183 180 184 195 188 161 155 51 353 355 340 315 310 312 317 317 314 311 312 311 310 320 302 303 310 303 299 316 330 333
327 234 260 205 192 192 187 181 177 174 176 189 190 179 181 185 190 188 174 170 195 268 312 345 351 344 344 339 333 317 284 294 303 303 301 318 310 326 318 297 311 332 333
Height
1510 1512 1514 1516 1517 1518 1520 1521 1523 1524 1525 1526 1527 1528 1529 1529 1530 1530 1531 1531 1531 1531 1531 1531 1530 1530 1529 1529 1528 1526 1525 1524 1522 1521 1519 1518 1516 1515 1513 1512 1510 1509 1507
1508 1510 1512 1513 1515 1516 1518 1519 1521 1522 1523 1524 1525 1526 1527 1528 1528 1529 1529 1530 1530 1530 1530 1529 1529 1529 1528 1527 1526 1525 1524 1522 1521 1519 1517 1516 1514 1512 1511 1509 1507 1506 1504
1506 1508 1509 1511 1513 1514 1516 1517 1519 1520 1521 1522 1523 1524 1525 1526 1527 1527 1528 1528 1528 1528 1528 1528 1528 1527 1527 1526 1525 1523 1522 1521 1519 1517 1515 1513 1512 1510 1508 1506 1504 1503 1501
1504 1505 1507 1509 1511 1512 1513 1515 1517 1518 1519 1520 1521 1522 1523 1524 1525 1525 1526 1526 1526 1526 1526 1526 1526 1526 1525 1524 1523 1522 1521 1519 1517 1515 1513 1511 1510 1508 1506 1504 1502 1500 1498
1501 1503 1504 1506 1508 1510 1511 1513 1514 1516 1517 1518 1519 1520 1521 1522 1523 1523 1524 1524 1524 1525 1524 1524 1524 1524 1523 1523 1522 1520 1519 1517 1515 1513 1511 1509 1507 1505 1503 1501 1499 1497 1495
1499 1500 1502 1503 1505 1507 1509 1511 1512 1514 1515 1516 1517 1518 1519 1520 1521 1521 1521 1522 1522 1523 1523 1522 1522 1522 1521 1520 1519 1518 1517 1515 1513 1511 1509 1507 1505 1502 1500 1498 1496 1493 1491
1496 1498 1499 1501 1502 1505 1507 1508 1510 1511 1512 1513 1515 1516 1517 1518 1518 1519 1519 1520 1520 1520 1521 1520 1520 1520 1519 1518 1517 1516 1514 1513 1511 1509 1507 1504 1502 1500 1498 1495 1493 1490 1488
1493 1495 1496 1498 1500 1501 1504 1505 1507 1508 1509 1511 1512 1513 1514 1516 1516 1517 1517 1518 1518 1518 1518 1518 1518 1517 1517 1516 1515 1514 1512 1510 1508 1506 1504 1502 1499 1497 1495 1492 1490 1487 1485
1491 1492 1493 1495 1497 1499 1501 1502 1503 1505 1507 1509 1510 1511 1512 1512 1513 1515 1515 1515 1516 1516 1516 1516 1516 1515 1515 1514 1512 1511 1510 1508 1506 1503 1501 1499 1496 1494 1491 1489 1487 1484 1481
1488 1489 1491 1492 1494 1496 1498 1499 1501 1503 1504 1506 1507 1509 1510 1510 1510 1511 1513 1513 1514 1514 1514 1514 1513 1513 1512 1511 1510 1509 1507 1505 1503 1500 1498 1495 1493 1491 1488 1486 1483 1480 1478
1485 1486 1488 1489 1491 1493 1495 1496 1498 1500 1501 1503 1504 1505 1506 1507 1508 1508 1509 1510 1511 1511 1512 1511 1511 1510 1510 1509 1508 1506 1504 1502 1500 1497 1495 1492 1489 1487 1484 1482 1479 1476 1474
1481 1483 1485 1486 1488 1490 1491 1494 1495 1497 1498 1500 1502 1502 1503 1504 1504 1505 1506 1507 1507 1508 1509 1509 1508 1508 1507 1506 1505 1503 1502 1499 1497 1494 1491 1488 1486 1483 1480 1478 1475 1473 1470
1478 1479 1481 1483 1485 1487 1488 1490 1492 1494 1496 1497 1498 1499 1500 1501 1502 1503 1503 1504 1504 1504 1505 1506 1506 1505 1504 1503 1502 1500 1499 1496 1493 1490 1488 1485 1482 1480 1477 1474 1472 1469 1467
1475 1477 1478 1480 1482 1484 1485 1487 1489 1491 1493 1494 1495 1496 1497 1499 1500 1500 1501 1501 1501 1501 1502 1502 1502 1502 1501 1500 1499 1497 1495 1493 1490 1487 1485 1482 1479 1476 1473 1471 1468 1466 1463
1472 1474 1475 1477 1479 1480 1482 1484 1486 1488 1489 1490 1492 1493 1494 1495 1496 1497 1498 1499 1499 1498 1498 1498 1499 1498 1498 1497 1495 1494 1492 1490 1487 1484 1481 1479 1476 1473 1470 1468 1465 1462 1460
1469 1470 1472 1474 1475 1477 1479 1481 1483 1485 1486 1487 1488 1490 1491 1492 1493 1494 1495 1495 1496 1496 1495 1494 1495 1495 1494 1493 1492 1490 1488 1486 1483 1481 1478 1475 1473 1470 1467 1464 1462 1459 1456
1467 1467 1469 1470 1472 1473 1476 1478 1479 1481 1483 1484 1485 1487 1488 1488 1489 1490 1491 1492 1492 1493 1491 1491 1492 1491 1490 1489 1488 1487 1485 1482 1480 1477 1474 1472 1469 1467 1464 1461 1459 1456 1453
1464 1465 1466 1467 1469 1470 1472 1474 1476 1478 1480 1481 1482 1483 1484 1485 1486 1487 1487 1488 1489 1489 1489 1487 1487 1487 1487 1486 1484 1482 1481 1479 1476 1473 1471 1468 1466 1463 1461 1458 1455 1452 1449
1461 1462 1463 1465 1466 1467 1469 1471 1473 1475 1476 1478 1479 1480 1481 1481 1482 1483 1484 1484 1485 1486 1486 1485 1483 1483 1482 1482 1480 1478 1477 1475 1472 1470 1467 1465 1463 1460 1458 1455 1452 1449 1446
1458 1459 1460 1462 1463 1465 1466 1468 1470 1471 1473 1474 1475 1477 1477 1478 1479 1480 1480 1481 1482 1482 1482 1481 1480 1479 1478 1478 1477 1474 1472 1471 1469 1467 1464 1462 1459 1457 1454 1452 1449 1446 1442
1456 1457 1458 1459 1460 1462 1463 1465 1467 1468 1470 1471 1472 1473 1474 1475 1476 1477 1477 1478 1478 1478 1478 1477 1477 1476 1475 1474 1473 1471 1469 1466 1465 1463 1460 1458 1456 1453 1451 1448 1445 1442 1439
1453 1454 1455 1456 1458 1459 1461 1462 1464 1465 1467 1468 1469 1470 1471 1472 1473 1474 1475 1475 1475 1475 1474 1474 1473 1472 1471 1471 1470 1468 1466 1463 1460 1460 1457 1454 1453 1450 1447 1445 1442 1439 1436
1450 1451 1453 1454 1455 1457 1458 1460 1461 1462 1464 1465 1466 1467 1468 1469 1470 1470 1471 1472 1472 1472 1472 1471 1470 1469 1468 1467 1466 1464 1463 1461 1459 1457 1454 1450 1449 1446 1444 1442 1439 1437 1433
1448 1449 1450 1452 1453 1454 1456 1457 1458 1459 1461 1462 1463 1464 1465 1466 1466 1467 1468 1468 1468 1468 1468 1468 1467 1466 1466 1465 1464 1462 1460 1458 1456 1454 1453 1448 1445 1443 1441 1439 1437 1434 1431
1447 1448 1448 1449 1450 1452 1453 1454 1455 1456 1457 1459 1460 1461 1462 1462 1463 1464 1465 1464 1464 1464 1465 1465 1464 1464 1463 1462 1461 1459 1457 1455 1452 1451 1450 1447 1443 1440 1438 1436 1434 1431 1428
1445 1446 1446 1447 1448 1449 1450 1451 1453 1453 1454 1456 1457 1458 1459 1460 1460 1461 1461 1461 1461 1461 1461 1461 1461 1460 1460 1459 1458 1457 1455 1453 1450 1448 1446 1445 1442 1439 1435 1433 1431 1429 1426